Time,TemperatureF,DewpointF,PressureIn,WindDirection,WindDirectionDegrees,WindSpeedMPH,WindSpeedGustMPH,Humidity,HourlyPrecipIn,Conditions,Clouds,dailyrainin,SoftwareType,DateUTC
2013-06-01 00:02:00,71.3,65.9,29.68,SSW,200,3.0,5.0,83,0.00,,,0.00,Wunderground v.1.15,2013-06-01 04:02:00,
2013-06-01 00:08:00,71.0,66.3,29.68,SW,214,4.0,7.0,85,0.00,,,0.00,Wunderground v.1.15,2013-06-01 04:08:00,
2013-06-01 00:13:00,70.7,66.0,29.68,SW,225,5.0,5.0,85,0.00,,,0.00,Wunderground v.1.15,2013-06-01 04:13:00,
2013-06-01 00:23:00,70.4,66.0,29.68,WSW,248,3.0,3.0,86,0.00,,,0.00,Wunderground v.1.15,2013-06-01 04:23:00,
2013-06-01 00:28:00,70.3,65.9,29.67,SW,236,3.0,4.0,86,0.00,,,0.00,Wunderground v.1.15,2013-06-01 04:28:00,
2013-06-01 00:37:00,70.1,65.7,29.67,SW,219,3.0,6.0,86,0.00,,,0.00,Wunderground v.1.15,2013-06-01 04:37:00,
2013-06-01 00:47:00,69.7,65.7,29.67,SW,218,3.0,3.0,87,0.00,,,0.00,Wunderground v.1.15,2013-06-01 04:47:00,
2013-06-01 00:57:00,69.4,65.4,29.67,SW,221,3.0,4.0,87,0.00,,,0.00,Wunderground v.1.15,2013-06-01 04:57:00,
2013-06-01 01:03:00,69.4,65.4,29.66,SSW,205,3.0,4.0,87,0.00,,,0.00,Wunderground v.1.15,2013-06-01 05:03:00,
2013-06-01 01:12:00,69.2,65.5,29.66,SSW,200,4.0,4.0,88,0.00,,,0.00,Wunderground v.1.15,2013-06-01 05:12:00,
2013-06-01 01:22:00,69.2,65.5,29.66,SSW,205,4.0,4.0,88,0.00,,,0.00,Wunderground v.1.15,2013-06-01 05:22:00,
2013-06-01 01:28:00,69.3,65.6,29.65,SSW,200,4.0,4.0,88,0.00,,,0.00,Wunderground v.1.15,2013-06-01 05:28:00,
2013-06-01 01:37:00,69.2,65.8,29.65,SSW,202,3.0,4.0,89,0.00,,,0.00,Wunderground v.1.15,2013-06-01 05:37:00,
2013-06-01 01:43:00,69.2,65.8,29.66,SSW,211,4.0,4.0,89,0.00,,,0.00,Wunderground v.1.15,2013-06-01 05:43:00,
2013-06-01 01:48:00,69.1,65.7,29.66,WSW,243,4.0,4.0,89,0.00,,,0.00,Wunderground v.1.15,2013-06-01 05:48:00,
2013-06-01 01:57:00,69.2,65.5,29.67,SSW,211,3.0,5.0,88,0.00,,,0.00,Wunderground v.1.15,2013-06-01 05:57:00,
2013-06-01 02:03:00,69.2,65.5,29.67,WSW,237,2.0,2.0,88,0.00,,,0.00,Wunderground v.1.15,2013-06-01 06:03:00,
2013-06-01 02:08:00,69.2,65.5,29.67,SW,235,3.0,3.0,88,0.00,,,0.00,Wunderground v.1.15,2013-06-01 06:08:00,
2013-06-01 02:17:00,69.2,65.5,29.67,SW,218,4.0,4.0,88,0.00,,,0.00,Wunderground v.1.15,2013-06-01 06:17:00,
2013-06-01 02:23:00,69.3,65.6,29.67,SW,221,3.0,3.0,88,0.00,,,0.00,Wunderground v.1.15,2013-06-01 06:23:00,
2013-06-01 02:28:00,69.3,65.6,29.66,WSW,243,4.0,6.0,88,0.00,,,0.00,Wunderground v.1.15,2013-06-01 06:28:00,
2013-06-01 02:37:00,69.4,65.4,29.66,SSW,213,4.0,5.0,87,0.00,,,0.00,Wunderground v.1.15,2013-06-01 06:37:00,
2013-06-01 02:47:00,69.4,65.4,29.65,SW,217,3.0,3.0,87,0.00,,,0.00,Wunderground v.1.15,2013-06-01 06:47:00,
2013-06-01 02:57:00,69.6,65.2,29.65,SW,215,4.0,4.0,86,0.00,,,0.00,Wunderground v.1.15,2013-06-01 06:57:00,
2013-06-01 03:08:00,69.8,65.1,29.64,SSW,211,3.0,3.0,85,0.00,,,0.00,Wunderground v.1.15,2013-06-01 07:08:00,
2013-06-01 03:17:00,69.8,65.1,29.64,SSW,195,3.0,4.0,85,0.00,,,0.00,Wunderground v.1.15,2013-06-01 07:17:00,
2013-06-01 03:27:00,69.8,65.1,29.63,SSW,199,4.0,6.0,85,0.00,,,0.00,Wunderground v.1.15,2013-06-01 07:27:00,
2013-06-01 03:37:00,69.9,65.2,29.63,SSW,196,5.0,5.0,85,0.00,,,0.00,Wunderground v.1.15,2013-06-01 07:37:00,
2013-06-01 03:43:00,70.0,65.3,29.63,SW,217,5.0,5.0,85,0.00,,,0.00,Wunderground v.1.15,2013-06-01 07:43:00,
2013-06-01 03:52:00,69.8,65.4,29.62,SSW,198,5.0,6.0,86,0.00,,,0.01,Wunderground v.1.15,2013-06-01 07:52:00,
2013-06-01 03:57:00,69.5,65.5,29.62,SSW,205,5.0,6.0,87,0.00,,,0.01,Wunderground v.1.15,2013-06-01 07:57:00,
2013-06-01 04:03:00,69.3,65.3,29.62,SSW,211,5.0,6.0,87,0.00,,,0.01,Wunderground v.1.15,2013-06-01 08:03:00,
2013-06-01 04:08:00,69.2,65.5,29.62,SW,217,5.0,6.0,88,0.00,,,0.01,Wunderground v.1.15,2013-06-01 08:08:00,
2013-06-01 04:17:00,68.9,65.5,29.62,SSW,205,5.0,6.0,89,0.00,,,0.01,Wunderground v.1.15,2013-06-01 08:17:00,
2013-06-01 04:27:00,68.8,65.7,29.62,South,186,4.0,5.0,90,0.00,,,0.01,Wunderground v.1.15,2013-06-01 08:27:00,
2013-06-01 04:32:00,68.7,65.6,29.62,SSW,192,4.0,4.0,90,0.00,,,0.01,Wunderground v.1.15,2013-06-01 08:32:00,
2013-06-01 04:37:00,68.7,65.6,29.62,South,181,4.0,4.0,90,0.00,,,0.01,Wunderground v.1.15,2013-06-01 08:37:00,
2013-06-01 04:47:00,68.6,65.5,29.62,South,180,5.0,5.0,90,0.00,,,0.01,Wunderground v.1.15,2013-06-01 08:47:00,
2013-06-01 04:57:00,68.6,65.5,29.63,WSW,243,4.0,5.0,90,0.00,,,0.01,Wunderground v.1.15,2013-06-01 08:57:00,
2013-06-01 05:03:00,68.5,65.4,29.63,SSW,194,3.0,3.0,90,0.00,,,0.01,Wunderground v.1.15,2013-06-01 09:03:00,
2013-06-01 05:08:00,68.5,65.4,29.63,SSW,211,2.0,3.0,90,0.00,,,0.01,Wunderground v.1.15,2013-06-01 09:08:00,
2013-06-01 05:17:00,68.3,65.6,29.62,SSW,211,1.0,2.0,91,0.00,,,0.01,Wunderground v.1.15,2013-06-01 09:17:00,
2013-06-01 05:23:00,68.3,65.6,29.62,SSW,202,2.0,2.0,91,0.00,,,0.01,Wunderground v.1.15,2013-06-01 09:23:00,
2013-06-01 05:28:00,68.2,65.5,29.62,SSW,202,2.0,2.0,91,0.00,,,0.01,Wunderground v.1.15,2013-06-01 09:28:00,
2013-06-01 05:37:00,68.1,65.4,29.62,SSW,202,1.0,2.0,91,0.00,,,0.01,Wunderground v.1.15,2013-06-01 09:37:00,
2013-06-01 05:47:00,68.1,65.4,29.61,South,180,2.0,3.0,91,0.00,,,0.01,Wunderground v.1.15,2013-06-01 09:47:00,
2013-06-01 05:53:00,68.1,65.4,29.61,South,178,2.0,3.0,91,0.00,,,0.01,Wunderground v.1.15,2013-06-01 09:53:00,
2013-06-01 05:58:00,68.3,65.6,29.62,SSW,196,3.0,3.0,91,0.00,,,0.01,Wunderground v.1.15,2013-06-01 09:58:00,
2013-06-01 06:08:00,68.6,65.5,29.62,SSW,192,2.0,3.0,90,0.00,,,0.01,Wunderground v.1.15,2013-06-01 10:08:00,
2013-06-01 06:17:00,68.8,65.4,29.62,SSW,201,2.0,2.0,89,0.00,,,0.01,Wunderground v.1.15,2013-06-01 10:17:00,
2013-06-01 06:23:00,69.0,65.6,29.63,SSW,197,2.0,2.0,89,0.00,,,0.01,Wunderground v.1.15,2013-06-01 10:23:00,
2013-06-01 06:28:00,69.1,65.7,29.63,SSW,200,3.0,4.0,89,0.00,,,0.01,Wunderground v.1.15,2013-06-01 10:28:00,
2013-06-01 06:37:00,69.2,65.8,29.63,SSW,198,3.0,4.0,89,0.00,,,0.01,Wunderground v.1.15,2013-06-01 10:37:00,
2013-06-01 06:43:00,69.3,65.9,29.63,SSW,197,3.0,3.0,89,0.00,,,0.01,Wunderground v.1.15,2013-06-01 10:43:00,
2013-06-01 06:48:00,69.4,66.0,29.63,SSW,204,3.0,3.0,89,0.00,,,0.01,Wunderground v.1.15,2013-06-01 10:48:00,
2013-06-01 06:57:00,69.6,66.2,29.63,SW,216,3.0,3.0,89,0.00,,,0.01,Wunderground v.1.15,2013-06-01 10:57:00,
2013-06-01 07:08:00,69.9,66.5,29.62,South,179,2.0,4.0,89,0.00,,,0.01,Wunderground v.1.15,2013-06-01 11:08:00,
2013-06-01 07:17:00,70.2,66.5,29.62,SE,133,2.0,2.0,88,0.00,,,0.01,Wunderground v.1.15,2013-06-01 11:17:00,
2013-06-01 07:23:00,70.4,67.0,29.62,SE,133,1.0,1.0,89,0.00,,,0.01,Wunderground v.1.15,2013-06-01 11:23:00,
2013-06-01 07:28:00,70.6,66.9,29.62,SSE,154,1.0,3.0,88,0.00,,,0.01,Wunderground v.1.15,2013-06-01 11:28:00,
2013-06-01 07:37:00,71.2,67.5,29.62,South,190,3.0,3.0,88,0.00,,,0.01,Wunderground v.1.15,2013-06-01 11:37:00,
2013-06-01 07:43:00,71.4,67.3,29.62,SSW,203,3.0,3.0,87,0.00,,,0.01,Wunderground v.1.15,2013-06-01 11:43:00,
2013-06-01 07:48:00,71.7,67.6,29.62,SSW,199,2.0,3.0,87,0.00,,,0.01,Wunderground v.1.15,2013-06-01 11:48:00,
2013-06-01 07:57:00,72.1,67.7,29.62,SSW,202,3.0,3.0,86,0.00,,,0.01,Wunderground v.1.15,2013-06-01 11:57:00,
2013-06-01 08:08:00,72.7,68.3,29.61,South,186,3.0,5.0,86,0.00,,,0.01,Wunderground v.1.15,2013-06-01 12:08:00,
2013-06-01 08:18:00,73.2,68.4,29.61,SSW,196,4.0,4.0,85,0.00,,,0.01,Wunderground v.1.15,2013-06-01 12:18:00,
2013-06-01 08:27:00,73.6,68.1,29.61,SSW,209,5.0,8.0,83,0.00,,,0.01,Wunderground v.1.15,2013-06-01 12:27:00,
2013-06-01 08:37:00,73.9,68.4,29.61,SW,234,5.0,7.0,83,0.00,,,0.01,Wunderground v.1.15,2013-06-01 12:37:00,
2013-06-01 08:42:00,74.1,68.6,29.61,SSW,209,5.0,5.0,83,0.00,,,0.01,Wunderground v.1.15,2013-06-01 12:42:00,
2013-06-01 08:47:00,74.4,68.9,29.60,SSW,206,5.0,7.0,83,0.00,,,0.01,Wunderground v.1.15,2013-06-01 12:47:00,
2013-06-01 08:57:00,75.2,69.3,29.60,SSW,201,5.0,8.0,82,0.00,,,0.01,Wunderground v.1.15,2013-06-01 12:57:00,
2013-06-01 09:03:00,75.7,69.5,29.60,South,179,5.0,5.0,81,0.00,,,0.01,Wunderground v.1.15,2013-06-01 13:03:00,
2013-06-01 09:08:00,76.2,69.6,29.60,SW,218,5.0,5.0,80,0.00,,,0.01,Wunderground v.1.15,2013-06-01 13:08:00,
2013-06-01 09:17:00,77.0,70.7,29.59,SW,230,6.0,6.0,81,0.00,,,0.01,Wunderground v.1.15,2013-06-01 13:17:00,
2013-06-01 09:28:00,77.6,69.4,29.59,SSW,206,7.0,7.0,76,0.00,,,0.01,Wunderground v.1.15,2013-06-01 13:28:00,
2013-06-01 09:37:00,78.5,71.1,29.59,SW,233,5.0,6.0,78,0.00,,,0.01,Wunderground v.1.15,2013-06-01 13:37:00,
2013-06-01 09:47:00,79.0,70.0,29.59,SW,216,7.0,11.0,74,0.00,,,0.01,Wunderground v.1.15,2013-06-01 13:47:00,
2013-06-01 09:57:00,79.1,69.3,29.58,SW,226,8.0,10.0,72,0.00,,,0.01,Wunderground v.1.15,2013-06-01 13:57:00,
2013-06-01 10:08:00,78.9,68.7,29.58,WSW,247,9.0,13.0,71,0.00,,,0.01,Wunderground v.1.15,2013-06-01 14:08:00,
2013-06-01 10:18:00,79.2,69.4,29.58,SW,215,8.0,15.0,72,0.00,,,0.01,Wunderground v.1.15,2013-06-01 14:18:00,
2013-06-01 10:27:00,79.6,69.0,29.58,SW,221,7.0,7.0,70,0.00,,,0.01,Wunderground v.1.15,2013-06-01 14:27:00,
2013-06-01 10:37:00,80.2,69.9,29.58,West,269,6.0,7.0,71,0.00,,,0.01,Wunderground v.1.15,2013-06-01 14:37:00,
2013-06-01 10:42:00,80.4,68.9,29.58,West,273,8.0,8.0,68,0.00,,,0.01,Wunderground v.1.15,2013-06-01 14:42:00,
2013-06-01 10:52:00,80.7,68.7,29.58,SW,228,6.0,6.0,67,0.00,,,0.01,Wunderground v.1.15,2013-06-01 14:52:00,
2013-06-01 10:57:00,80.5,68.5,29.57,WSW,241,6.0,6.0,67,0.00,,,0.01,Wunderground v.1.15,2013-06-01 14:57:00,
2013-06-01 11:02:00,80.5,69.0,29.57,South,191,5.0,7.0,68,0.00,,,0.01,Wunderground v.1.15,2013-06-01 15:02:00,
2013-06-01 11:08:00,80.7,70.4,29.57,NW,319,5.0,7.0,71,0.00,,,0.01,Wunderground v.1.15,2013-06-01 15:08:00,
2013-06-01 11:18:00,81.1,69.5,29.57,SW,234,6.0,9.0,68,0.00,,,0.01,Wunderground v.1.15,2013-06-01 15:18:00,
2013-06-01 11:27:00,81.4,71.1,29.57,WSW,240,6.0,6.0,71,0.00,,,0.01,Wunderground v.1.15,2013-06-01 15:27:00,
2013-06-01 11:37:00,81.9,70.7,29.57,WSW,254,6.0,6.0,69,0.00,,,0.01,Wunderground v.1.15,2013-06-01 15:37:00,
2013-06-01 11:47:00,82.3,71.5,29.57,WSW,238,6.0,7.0,70,0.00,,,0.01,Wunderground v.1.15,2013-06-01 15:47:00,
2013-06-01 11:53:00,82.4,71.2,29.57,NNW,328,7.0,7.0,69,0.00,,,0.01,Wunderground v.1.15,2013-06-01 15:53:00,
2013-06-01 11:58:00,82.8,72.4,29.57,WSW,240,8.0,8.0,71,0.00,,,0.01,Wunderground v.1.15,2013-06-01 15:58:00,
2013-06-01 12:08:00,83.3,71.2,29.57,SSW,199,6.0,7.0,67,0.00,,,0.01,Wunderground v.1.15,2013-06-01 16:08:00,
2013-06-01 12:17:00,83.0,71.8,29.56,WSW,250,9.0,9.0,69,0.00,,,0.01,Wunderground v.1.15,2013-06-01 16:17:00,
2013-06-01 12:23:00,83.5,72.3,29.56,SW,234,6.0,6.0,69,0.00,,,0.01,Wunderground v.1.15,2013-06-01 16:23:00,
2013-06-01 12:33:00,83.9,71.8,29.55,SSW,207,8.0,10.0,67,0.00,,,0.01,Wunderground v.1.15,2013-06-01 16:33:00,
2013-06-01 12:38:00,84.1,72.4,29.55,SW,231,8.0,19.0,68,0.00,,,0.01,Wunderground v.1.15,2013-06-01 16:38:00,
2013-06-01 12:47:00,84.0,71.4,29.55,WSW,243,10.0,12.0,66,0.00,,,0.01,Wunderground v.1.15,2013-06-01 16:47:00,
2013-06-01 12:53:00,84.0,71.0,29.55,SW,229,9.0,9.0,65,0.00,,,0.01,Wunderground v.1.15,2013-06-01 16:53:00,
2013-06-01 12:58:00,84.5,71.4,29.55,SW,223,8.0,9.0,65,0.00,,,0.01,Wunderground v.1.15,2013-06-01 16:58:00,
2013-06-01 13:08:00,84.7,72.1,29.54,SW,223,8.0,19.0,66,0.00,,,0.01,Wunderground v.1.15,2013-06-01 17:08:00,
2013-06-01 13:17:00,85.3,71.7,29.54,SW,217,6.0,10.0,64,0.00,,,0.01,Wunderground v.1.15,2013-06-01 17:17:00,
2013-06-01 13:22:00,85.2,71.6,29.54,SW,225,8.0,9.0,64,0.00,,,0.01,Wunderground v.1.15,2013-06-01 17:22:00,
2013-06-01 13:27:00,85.0,71.9,29.54,WSW,248,9.0,10.0,65,0.00,,,0.01,Wunderground v.1.15,2013-06-01 17:27:00,
2013-06-01 13:33:00,85.3,72.2,29.54,South,184,7.0,9.0,65,0.00,,,0.01,Wunderground v.1.15,2013-06-01 17:33:00,
2013-06-01 13:42:00,86.3,71.7,29.54,SSW,211,7.0,15.0,62,0.00,,,0.01,Wunderground v.1.15,2013-06-01 17:42:00,
2013-06-01 13:47:00,86.2,71.2,29.54,SW,229,8.0,15.0,61,0.00,,,0.01,Wunderground v.1.15,2013-06-01 17:47:00,
2013-06-01 13:57:00,86.5,71.9,29.54,SW,219,8.0,13.0,62,0.00,,,0.01,Wunderground v.1.15,2013-06-01 17:57:00,
2013-06-01 14:08:00,86.6,71.1,29.54,SSW,197,9.0,16.0,60,0.00,,,0.01,Wunderground v.1.15,2013-06-01 18:08:00,
2013-06-01 14:17:00,86.6,71.1,29.54,WSW,244,9.0,14.0,60,0.00,,,0.01,Wunderground v.1.15,2013-06-01 18:17:00,
2013-06-01 14:27:00,87.0,70.9,29.53,SW,229,8.0,8.0,59,0.00,,,0.01,Wunderground v.1.15,2013-06-01 18:27:00,
2013-06-01 14:33:00,87.0,71.9,29.53,SW,226,6.0,9.0,61,0.00,,,0.01,Wunderground v.1.15,2013-06-01 18:33:00,
2013-06-01 14:42:00,87.7,71.6,29.53,WSW,246,6.0,7.0,59,0.00,,,0.01,Wunderground v.1.15,2013-06-01 18:42:00,
2013-06-01 14:47:00,87.9,72.3,29.53,SSW,197,6.0,7.0,60,0.00,,,0.01,Wunderground v.1.15,2013-06-01 18:47:00,
2013-06-01 14:57:00,87.2,71.6,29.53,SW,234,6.0,6.0,60,0.00,,,0.01,Wunderground v.1.15,2013-06-01 18:57:00,
2013-06-01 15:08:00,87.5,72.4,29.53,South,184,7.0,10.0,61,0.00,,,0.01,Wunderground v.1.15,2013-06-01 19:08:00,
2013-06-01 15:18:00,87.1,72.0,29.52,WNW,295,8.0,8.0,61,0.00,,,0.01,Wunderground v.1.15,2013-06-01 19:18:00,
2013-06-01 15:27:00,87.5,69.9,29.51,SSW,210,8.0,15.0,56,0.00,,,0.01,Wunderground v.1.15,2013-06-01 19:27:00,
2013-06-01 15:32:00,87.6,71.0,29.52,WSW,249,9.0,9.0,58,0.00,,,0.01,Wunderground v.1.15,2013-06-01 19:32:00,
2013-06-01 15:38:00,87.2,70.6,29.51,SSW,193,8.0,10.0,58,0.00,,,0.01,Wunderground v.1.15,2013-06-01 19:38:00,
2013-06-01 15:43:00,86.7,70.7,29.51,WSW,240,9.0,9.0,59,0.00,,,0.01,Wunderground v.1.15,2013-06-01 19:43:00,
2013-06-01 15:52:00,86.3,71.3,29.51,WNW,302,8.0,11.0,61,0.00,,,0.01,Wunderground v.1.15,2013-06-01 19:52:00,
2013-06-01 15:58:00,86.8,71.7,29.50,WSW,244,8.0,11.0,61,0.00,,,0.01,Wunderground v.1.15,2013-06-01 19:58:00,
2013-06-01 16:08:00,86.6,71.5,29.50,SW,222,6.0,9.0,61,0.00,,,0.01,Wunderground v.1.15,2013-06-01 20:08:00,
2013-06-01 16:17:00,85.9,71.4,29.50,SW,226,6.0,7.0,62,0.00,,,0.01,Wunderground v.1.15,2013-06-01 20:17:00,
2013-06-01 16:27:00,86.3,71.3,29.50,SSW,209,6.0,6.0,61,0.00,,,0.01,Wunderground v.1.15,2013-06-01 20:27:00,
2013-06-01 16:33:00,86.6,71.5,29.50,WSW,241,6.0,15.0,61,0.00,,,0.01,Wunderground v.1.15,2013-06-01 20:33:00,
2013-06-01 16:38:00,86.9,72.3,29.50,SW,219,6.0,15.0,62,0.00,,,0.01,Wunderground v.1.15,2013-06-01 20:38:00,
2013-06-01 16:47:00,86.1,71.6,29.50,SSW,202,5.0,11.0,62,0.00,,,0.01,Wunderground v.1.15,2013-06-01 20:47:00,
2013-06-01 16:57:00,85.7,70.7,29.50,West,263,4.0,6.0,61,0.00,,,0.01,Wunderground v.1.15,2013-06-01 20:57:00,
2013-06-01 17:08:00,85.6,71.1,29.49,SW,218,3.0,8.0,62,0.00,,,0.01,Wunderground v.1.15,2013-06-01 21:08:00,
2013-06-01 17:17:00,85.4,70.9,29.49,NW,304,3.0,3.0,62,0.00,,,0.01,Wunderground v.1.15,2013-06-01 21:17:00,
2013-06-01 17:23:00,85.3,71.3,29.50,WNW,302,2.0,3.0,63,0.00,,,0.01,Wunderground v.1.15,2013-06-01 21:23:00,
2013-06-01 17:33:00,79.9,71.7,29.53,West,267,5.0,9.0,76,0.87,,,0.15,Wunderground v.1.15,2013-06-01 21:33:00,
2013-06-01 17:38:00,76.1,70.2,29.55,SSW,212,5.0,9.0,82,4.00,,,0.30,Wunderground v.1.15,2013-06-01 21:38:00,
2013-06-01 17:47:00,73.2,70.1,29.52,SSW,210,3.0,6.0,90,0.22,,,0.44,Wunderground v.1.15,2013-06-01 21:47:00,
2013-06-01 17:57:00,72.4,69.9,29.52,SSW,200,3.0,4.0,92,0.11,,,0.46,Wunderground v.1.15,2013-06-01 21:57:00,
2013-06-01 18:03:00,72.3,70.2,29.52,West,275,3.0,3.0,93,0.08,,,0.47,Wunderground v.1.15,2013-06-01 22:03:00,
2013-06-01 18:08:00,72.2,70.4,29.52,West,275,1.0,3.0,94,0.07,,,0.47,Wunderground v.1.15,2013-06-01 22:08:00,
2013-06-01 18:17:00,72.2,70.4,29.53,West,275,1.0,1.0,94,0.00,,,0.47,Wunderground v.1.15,2013-06-01 22:17:00,
2013-06-01 18:27:00,72.2,70.4,29.53,South,188,2.0,3.0,94,0.00,,,0.47,Wunderground v.1.15,2013-06-01 22:27:00,
2013-06-01 18:37:00,72.2,70.7,29.53,South,187,3.0,4.0,95,0.00,,,0.48,Wunderground v.1.15,2013-06-01 22:37:00,
2013-06-01 18:43:00,72.2,70.7,29.53,South,188,3.0,3.0,95,0.00,,,0.48,Wunderground v.1.15,2013-06-01 22:43:00,
2013-06-01 18:52:00,72.2,70.7,29.53,South,174,4.0,4.0,95,0.00,,,0.48,Wunderground v.1.15,2013-06-01 22:52:00,
2013-06-01 18:57:00,72.3,70.8,29.53,South,181,4.0,4.0,95,0.00,,,0.48,Wunderground v.1.15,2013-06-01 22:57:00,
2013-06-01 19:08:00,72.5,71.0,29.55,South,188,6.0,8.0,95,0.00,,,0.49,Wunderground v.1.15,2013-06-01 23:08:00,
2013-06-01 19:17:00,72.5,70.7,29.54,SSW,201,6.0,7.0,94,0.12,,,0.50,Wunderground v.1.15,2013-06-01 23:17:00,
2013-06-01 19:27:00,72.3,70.5,29.53,SW,223,4.0,5.0,94,0.07,,,0.51,Wunderground v.1.15,2013-06-01 23:27:00,
2013-06-01 19:37:00,72.1,70.0,29.53,SW,221,3.0,4.0,93,0.04,,,0.51,Wunderground v.1.15,2013-06-01 23:37:00,
2013-06-01 19:47:00,71.9,70.1,29.52,SSW,199,2.0,3.0,94,0.00,,,0.51,Wunderground v.1.15,2013-06-01 23:47:00,
2013-06-01 19:57:00,71.7,69.9,29.55,SW,219,5.0,9.0,94,0.00,,,0.51,Wunderground v.1.15,2013-06-01 23:57:00,
2013-06-01 20:02:00,71.6,69.8,29.54,South,184,6.0,6.0,94,0.00,,,0.51,Wunderground v.1.15,2013-06-02 00:02:00,
2013-06-01 20:08:00,71.7,69.9,29.54,SSW,203,6.0,6.0,94,0.00,,,0.51,Wunderground v.1.15,2013-06-02 00:08:00,
2013-06-01 20:17:00,71.6,69.8,29.55,SW,225,4.0,6.0,94,0.00,,,0.51,Wunderground v.1.15,2013-06-02 00:17:00,
2013-06-01 20:27:00,71.5,69.7,29.54,SSW,192,4.0,6.0,94,0.00,,,0.52,Wunderground v.1.15,2013-06-02 00:27:00,
2013-06-01 20:32:00,71.4,69.6,29.54,NW,311,3.0,3.0,94,0.00,,,0.52,Wunderground v.1.15,2013-06-02 00:32:00,
2013-06-01 20:38:00,71.3,69.5,29.54,SW,214,2.0,3.0,94,0.00,,,0.52,Wunderground v.1.15,2013-06-02 00:38:00,
2013-06-01 20:48:00,71.1,69.3,29.55,SW,215,2.0,2.0,94,0.00,,,0.53,Wunderground v.1.15,2013-06-02 00:48:00,
2013-06-01 20:58:00,70.9,69.1,29.55,SSW,204,4.0,4.0,94,0.10,,,0.55,Wunderground v.1.15,2013-06-02 00:58:00,
2013-06-01 21:08:00,70.2,68.4,29.54,SSW,193,5.0,8.0,94,0.11,,,0.57,Wunderground v.1.15,2013-06-02 01:08:00,
2013-06-01 21:17:00,70.1,68.6,29.54,SSW,205,5.0,5.0,95,0.04,,,0.58,Wunderground v.1.15,2013-06-02 01:17:00,
2013-06-01 21:22:00,70.1,68.6,29.54,South,188,5.0,5.0,95,0.04,,,0.58,Wunderground v.1.15,2013-06-02 01:22:00,
2013-06-01 21:27:00,70.1,68.6,29.53,South,180,4.0,5.0,95,0.04,,,0.58,Wunderground v.1.15,2013-06-02 01:27:00,
2013-06-01 21:37:00,70.1,68.6,29.54,SW,219,3.0,4.0,95,0.00,,,0.58,Wunderground v.1.15,2013-06-02 01:37:00,
2013-06-01 21:42:00,70.1,68.6,29.53,South,184,3.0,3.0,95,0.00,,,0.58,Wunderground v.1.15,2013-06-02 01:42:00,
2013-06-01 21:47:00,70.1,68.6,29.53,SSW,193,3.0,4.0,95,0.00,,,0.58,Wunderground v.1.15,2013-06-02 01:47:00,
2013-06-01 21:53:00,70.0,68.8,29.54,SSW,209,3.0,4.0,96,0.00,,,0.59,Wunderground v.1.15,2013-06-02 01:53:00,
2013-06-01 22:02:00,69.9,68.7,29.53,South,175,2.0,3.0,96,0.07,,,0.60,Wunderground v.1.15,2013-06-02 02:02:00,
2013-06-01 22:08:00,69.9,68.7,29.53,SSW,207,3.0,3.0,96,0.06,,,0.60,Wunderground v.1.15,2013-06-02 02:08:00,
2013-06-01 22:17:00,69.9,68.7,29.54,NW,304,3.0,3.0,96,0.89,,,0.65,Wunderground v.1.15,2013-06-02 02:17:00,
2013-06-01 22:23:00,69.8,68.6,29.53,SSW,205,3.0,3.0,96,0.25,,,0.68,Wunderground v.1.15,2013-06-02 02:23:00,
2013-06-01 22:33:00,69.4,68.2,29.53,SW,221,3.0,3.0,96,0.05,,,0.68,Wunderground v.1.15,2013-06-02 02:33:00,
2013-06-01 22:42:00,69.3,68.1,29.53,SW,214,3.0,3.0,96,0.00,,,0.68,Wunderground v.1.15,2013-06-02 02:42:00,
2013-06-01 22:47:00,69.2,68.0,29.52,SSW,206,3.0,3.0,96,0.00,,,0.68,Wunderground v.1.15,2013-06-02 02:47:00,
2013-06-01 22:57:00,69.1,67.9,29.52,SSW,193,2.0,3.0,96,0.00,,,0.68,Wunderground v.1.15,2013-06-02 02:57:00,
2013-06-01 23:03:00,69.1,67.9,29.52,SSW,210,3.0,4.0,96,0.00,,,0.68,Wunderground v.1.15,2013-06-02 03:03:00,
2013-06-01 23:08:00,69.1,67.9,29.52,SW,221,3.0,4.0,96,0.00,,,0.68,Wunderground v.1.15,2013-06-02 03:08:00,
2013-06-01 23:17:00,69.1,67.9,29.52,SSW,200,4.0,4.0,96,0.00,,,0.68,Wunderground v.1.15,2013-06-02 03:17:00,
2013-06-01 23:23:00,69.1,67.9,29.52,South,189,4.0,4.0,96,0.00,,,0.68,Wunderground v.1.15,2013-06-02 03:23:00,
2013-06-01 23:28:00,69.1,67.9,29.51,SSW,213,3.0,4.0,96,0.00,,,0.68,Wunderground v.1.15,2013-06-02 03:28:00,
2013-06-01 23:37:00,69.1,67.9,29.51,SSW,213,1.0,3.0,96,0.00,,,0.68,Wunderground v.1.15,2013-06-02 03:37:00,
2013-06-01 23:47:00,69.1,67.9,29.51,SSW,213,1.0,2.0,96,0.00,,,0.68,Wunderground v.1.15,2013-06-02 03:47:00,
2013-06-01 23:57:00,69.1,68.2,29.52,SW,217,2.0,2.0,97,2.11,,,0.84,Wunderground v.1.15,2013-06-02 03:57:00,